SCP
0 0 0 0 0 0 0 0 0 0 0 0 0 0 0 0 0 0 0 0 0 0 0 0 0 0 0 0 0 0 0 0 0 0 0 0 0 0 0 0 0 0 0
0 0 0 0 0 0 0 0 0 0 0 0 0 0 0 0 0 0 0 0 0 0 0 0 0 0 0 0 0 0 0 0 0 0 0 0 0 0 0 0 0 0 0
0 0 0 1 1 0 0 0 0 0 0 0 0 0 0 0 0 0 0 0 0 0 0 0 0 0 0 0 0 0 0 0 0 0 0 0 0 0 0 0 0 0 0
1 1 1 1 1 1 0 0 0 0 0 0 0 0 0 0 0 0 0 0 0 0 0 0 0 0 0 0 0 0 0 0 0 0 -0 -0 0 0 0 0 0 0 0
1 1 1 1 1 1 1 0 0 0 0 0 0 0 0 0 0 0 0 0 0 0 0 0 0 0 0 0 0 0 0 0 0 0 0 -0 0 0 0 0 0 0 0
1 1 1 1 1 1 1 1 0 0 0 0 0 0 0 0 0 0 0 0 0 0 0 0 0 0 0 0 0 0 0 0 0 0 0 0 0 0 0 0 0 0 0
1 1 1 1 1 1 1 1 1 0 0 0 0 0 0 0 0 0 0 0 0 0 0 0 0 0 -0 -0 -0 0 0 0 0 0 0 0 0 0 0 0 0 0 0
1 1 1 1 1 1 1 1 1 0 0 0 0 0 0 0 0 0 0 0 0 0 0 0 0 0 -0 -0 -0 -0 0 0 0 0 0 0 0 0 0 0 0 0 0
1 1 1 1 1 1 1 1 1 1 0 0 0 0 0 0 0 0 0 0 0 0 0 0 0 0 -0 -0 -0 -0 0 0 0 0 0 0 0 0 0 0 0 0 0
1 1 1 1 1 1 1 1 1 1 0 0 0 0 0 0 0 0 0 0 0 0 0 0 0 0 0 0 -0 -0 0 0 0 0 0 0 0 0 0 0 0 0 0
1 1 0 0 1 0 0 0 0 0 0 0 0 0 0 0 0 0 0 0 0 0 0 0 0 0 0 0 0 0 0 0 0 0 0 0 0 0 0 0 0 0 0
1 0 0 0 0 0 0 0 0 0 0 0 0 0 0 0 0 0 0 0 0 0 0 0 0 0 0 0 0 0 0 0 0 0 0 0 0 0 0 0 0 0 0
0 0 0 0 0 0 0 0 0 0 0 0 0 0 0 0 0 0 0 0 0 0 0 0 0 0 0 0 0 0 0 0 0 0 0 0 0 1 0 0 0 0 0
0 0 0 0 0 0 0 0 0 0 0 0 0 0 0 0 0 0 0 0 0 0 0 0 0 0 0 0 0 0 0 0 0 0 0 0 1 1 1 0 0 0 0
1 0 0 0 0 0 0 0 0 0 0 0 0 0 0 0 0 0 0 0 0 0 0 0 0 0 0 0 0 0 0 0 0 0 0 0 0 1 1 1 0 0 0
1 1 0 0 0 0 0 0 0 0 0 0 0 0 0 0 0 0 0 0 0 0 0 0 0 0 0 0 0 0 0 0 0 0 0 0 0 0 1 1 1 1 1
1 1 0 0 0 0 0 0 0 0 0 0 0 0 0 0 0 0 0 0 0 0 0 0 0 0 0 0 0 0 0 0 0 0 0 0 0 0 0 1 1 1 1
1 1 0 0 0 0 0 0 0 0 0 0 0 0 0 0 0 0 0 0 0 0 0 0 0 0 0 0 0 0 0 0 0 0 0 0 0 0 0 0 0 1 1
0 0 0 0 0 0 0 0 0 0 0 0 0 0 0 0 0 0 0 0 0 0 0 0 0 0 0 0 0 0 0 0 0 0 0 0 0 0 0 0 0 0 0
0 0 0 0 0 0 0 0 0 0 0 0 0 0 0 0 0 0 0 0 0 0 0 0 0 0 0 0 0 0 0 0 0 0 0 0 0 0 0 0 0 0 0
0 0 0 0 0 0 0 0 0 0 0 0 0 0 0 0 0 0 0 0 0 0 0 0 0 0 0 0 0 0 0 0 0 0 0 0 0 0 0 0 0 0 0
0 0 0 0 0 0 0 0 0 0 0 0 0 0 0 0 0 0 0 0 0 0 0 0 0 0 0 0 0 0 0 0 0 0 0 0 0 0 0 0 0 0 0
0 0 0 0 0 0 0 0 0 0 0 0 0 0 0 0 0 0 0 0 0 0 0 0 0 0 0 0 0 0 0 0 0 0 0 0 0 0 0 0 0 0 0
0 0 0 0 0 0 0 0 0 0 0 0 0 0 0 0 0 0 0 0 0 0 0 0 0 0 0 0 0 0 0 0 0 0 0 0 0 0 0 0 0 0 0
0 0 0 0 0 0 0 0 0 0 0 0 0 0 0 0 0 0 0 0 0 0 0 0 0 0 0 0 0 0 0 0 0 0 0 0 0 0 0 0 0 0 0
0 0 0 0 0 0 0 0 0 0 0 0 0 0 0 0 0 0 0 0 0 0 0 0 0 0 0 0 0 0 0 0 0 0 0 0 0 0 0 0 0 0 0
Wind_Speed
9 10 17 19 19 19 18 18 18 18 18 18 18 18 18 18 17 17 16 15 14 13 13 13 12 12 12 12 12 12 12 12 13 14 14 14 13 12 14 15 14 11 16
13 13 18 19 19 19 18 18 18 18 17 17 17 17 17 17 16 16 15 14 14 13 13 12 12 12 12 12 11 11 11 11 12 13 14 12 12 11 12 14 13 10 16
16 12 16 18 19 19 18 18 17 17 17 17 17 16 16 16 15 15 14 13 13 13 12 12 12 11 11 11 10 10 10 10 11 12 12 6 8 12 13 14 15 15 15
15 11 14 19 19 19 18 17 17 17 17 16 16 16 16 15 14 14 13 13 13 12 12 12 11 11 10 10 9 8 8 8 8 9 5 4 6 12 13 14 14 14 14
12 10 14 20 19 19 18 17 17 17 16 16 15 15 15 14 14 13 13 12 12 12 11 11 10 10 9 8 8 7 6 5 5 6 5 4 5 12 14 14 14 14 14
11 9 14 20 19 19 18 17 17 17 16 16 15 14 14 14 13 13 12 11 11 11 11 10 9 8 7 7 6 5 5 4 5 5 5 5 5 11 13 13 13 13 13
11 9 13 19 19 19 18 17 16 16 16 15 15 14 13 13 13 13 12 11 10 10 10 9 8 7 6 5 4 4 4 4 4 5 5 5 6 12 13 13 13 13 13
13 9 11 18 19 18 17 17 16 16 15 15 14 14 13 12 12 12 12 11 10 10 9 9 8 7 5 4 2 2 3 4 5 6 5 5 10 12 13 13 12 13 13
11 9 7 9 13 17 17 16 15 15 15 14 14 13 13 12 11 11 11 11 10 10 10 9 8 7 5 4 2 1 1 3 3 2 6 5 11 13 14 13 13 13 13
9 8 7 6 6 7 9 15 15 15 14 13 13 12 12 11 11 11 10 10 10 10 10 9 8 8 6 5 4 3 2 2 2 2 3 6 13 15 15 14 14 13 13
9 7 6 6 6 6 7 11 12 13 12 11 9 11 9 4 4 5 8 10 10 10 10 9 9 8 7 6 6 6 3 0 1 2 3 9 14 15 15 15 14 14 13
9 8 6 6 7 6 6 5 4 5 5 4 3 4 3 3 2 4 6 10 10 10 9 9 9 8 6 3 4 6 2 2 1 2 4 12 14 15 16 15 15 15 14
9 8 6 6 6 5 3 4 2 2 2 3 3 3 3 2 1 1 1 3 4 6 3 4 4 3 3 3 3 3 3 2 2 2 4 13 15 16 16 16 16 16 15
8 7 6 6 5 4 4 4 3 2 2 2 3 3 3 2 2 2 1 1 2 1 2 2 2 3 3 3 4 4 4 2 2 2 4 12 15 16 16 17 17 17 16
9 7 5 6 5 5 5 3 4 3 3 3 3 2 3 2 2 2 1 1 1 1 2 2 2 3 3 3 3 4 4 4 4 3 3 12 15 15 16 17 18 18 18
9 7 5 6 6 6 4 4 3 3 3 3 3 3 3 2 2 2 1 1 1 1 2 2 2 2 2 2 3 4 4 4 4 4 4 7 14 15 15 17 18 19 19
8 6 6 6 5 6 6 5 4 4 4 3 3 3 3 3 2 2 1 1 0 1 1 1 1 1 1 1 2 3 3 3 3 4 5 4 6 13 16 16 17 19 19
8 7 6 7 6 6 5 5 4 3 4 3 3 3 3 3 3 3 2 1 1 1 1 1 1 1 0 1 2 3 3 3 4 4 5 5 5 6 11 17 17 18 19
7 7 5 5 6 5 5 4 4 3 3 3 3 2 2 3 3 3 2 1 2 2 1 1 1 1 0 1 2 3 2 3 4 5 5 6 6 6 6 11 18 19 20
6 6 6 5 5 5 4 3 3 3 2 2 2 3 3 2 3 3 2 2 2 2 2 1 1 1 0 1 3 3 3 3 3 4 5 5 6 8 8 8 8 12 19
7 7 5 5 4 4 3 2 2 2 1 1 1 2 3 3 3 3 2 2 2 2 1 1 1 2 2 1 2 3 4 3 3 3 3 3 5 7 7 8 6 6 7
7 6 5 5 4 4 2 2 2 2 2 1 1 1 2 3 3 3 3 2 2 2 2 2 2 1 2 2 1 1 4 5 4 2 1 2 3 4 5 7 6 7 6
6 6 6 5 5 4 3 3 3 3 3 3 2 1 0 1 2 2 3 3 2 2 2 1 2 2 1 2 1 2 1 2 4 4 3 2 2 2 3 3 5 6 7
6 6 5 5 5 4 4 4 4 3 2 1 0 0 2 2 0 1 2 3 3 2 2 1 2 1 2 1 2 0 2 3 1 4 4 3 3 2 2 3 4 5 5
8 7 6 6 5 4 5 6 6 4 2 1 2 3 3 3 3 2 3 3 2 2 2 1 1 1 1 1 1 1 1 0 1 1 3 4 4 3 2 2 3 3 3
7 7 7 7 5 5 5 6 6 5 4 3 3 3 2 2 3 4 4 3 2 1 1 0 0 0 0 1 1 1 1 1 1 1 3 3 3 4 3 3 2 2 2
Wind_Direction
149 151 142 136 132 129 126 123 119 116 113 111 109 109 108 108 108 108 108 108 107 107 106 104 104 104 104 104 104 104 105 108 109 109 109 109 111 114 115 114 111 111 113
145 149 142 137 135 132 130 127 125 122 119 116 115 114 113 112 112 111 111 111 110 109 108 107 107 105 105 104 104 104 105 108 110 110 108 107 112 115 115 114 114 118 116
139 143 141 138 137 135 133 132 130 128 126 123 121 120 119 118 117 116 116 115 114 113 111 110 110 109 107 105 104 103 104 106 111 110 107 103 109 115 117 118 119 119 117
137 139 140 139 137 137 136 136 135 133 131 129 128 127 126 125 124 123 121 120 120 119 116 115 114 113 110 107 103 100 98 101 113 121 114 112 113 118 119 120 121 120 119
133 135 142 140 139 139 138 138 138 138 137 136 134 133 132 132 130 129 128 125 124 123 122 120 118 117 114 109 104 96 89 86 98 119 122 113 112 124 124 124 125 124 123
130 134 142 141 141 141 141 142 142 141 141 140 140 140 140 138 137 136 135 132 129 128 127 125 124 123 120 114 105 91 74 68 98 113 124 129 126 131 131 131 130 128 126
132 135 141 142 143 143 143 143 143 143 144 144 145 145 145 144 144 143 142 140 138 136 135 134 134 133 131 122 107 84 62 58 108 131 140 140 140 137 136 135 133 132 131
136 135 141 144 144 145 145 145 145 146 147 148 149 150 151 151 151 149 148 146 147 147 147 147 148 148 147 141 122 78 49 55 95 136 146 148 149 143 142 140 140 139 138
137 137 140 145 147 149 149 149 149 149 151 153 155 157 158 160 160 158 157 158 159 159 160 161 163 166 170 176 192 248 347 58 89 128 157 158 157 151 149 148 148 147 146
139 141 140 141 142 146 151 154 155 155 157 158 160 162 165 167 169 169 167 171 172 172 172 173 177 182 187 199 220 248 280 36 105 160 160 174 166 159 156 156 156 155 154
142 144 144 146 148 148 154 161 159 159 162 162 164 168 167 164 171 180 183 185 186 184 184 185 188 194 199 211 227 243 264 125 141 161 172 181 173 167 165 163 164 163 162
153 155 157 158 159 158 164 149 153 158 157 154 152 158 149 154 178 191 200 201 201 196 194 196 201 203 205 213 238 243 227 207 200 183 193 184 181 176 173 172 171 172 171
151 148 152 159 155 160 145 140 143 139 141 143 145 148 142 140 146 159 177 198 208 209 199 202 209 204 200 208 226 230 220 209 199 196 198 191 188 185 182 180 179 179 179
140 144 151 147 147 145 133 141 142 138 138 140 141 144 144 143 136 134 144 162 172 183 182 193 188 196 209 226 227 227 222 204 202 200 207 198 194 194 189 187 187 186 185
138 142 149 142 137 135 130 142 138 139 142 138 125 136 141 140 145 139 144 156 175 177 187 201 203 198 208 230 237 230 222 211 206 204 213 204 200 200 197 196 196 194 192
137 145 135 119 122 121 120 120 126 123 123 121 120 131 125 125 130 130 145 154 184 203 206 203 203 202 210 224 240 240 234 222 207 205 210 210 208 207 206 205 203 201 199
132 130 121 115 113 113 116 120 118 118 119 118 123 120 115 118 119 121 116 111 196 204 172 155 160 147 192 235 254 255 244 236 221 211 206 206 213 216 215 214 210 207 206
124 118 119 122 112 109 110 114 116 118 120 121 120 113 117 122 117 111 103 77 50 72 83 105 100 88 23 279 274 271 258 247 238 223 213 208 207 214 221 221 218 215 212
122 121 117 115 112 110 106 106 109 112 119 126 119 114 115 110 106 107 103 77 56 62 57 62 80 103 348 307 287 274 265 251 245 239 224 217 209 209 214 227 224 220 218
116 115 117 113 112 109 96 86 81 81 92 113 123 129 124 111 102 103 101 83 76 65 36 32 36 20 284 286 300 304 285 267 251 241 235 225 213 213 215 221 225 227 224
116 119 125 119 115 110 99 102 101 103 109 107 130 136 130 122 111 107 100 85 81 80 57 38 45 11 341 350 9 328 311 292 269 252 240 230 224 220 214 216 215 219 227
136 138 138 132 129 125 127 132 133 124 117 120 101 106 134 135 135 130 122 119 101 89 55 42 59 44 346 23 75 11 340 335 333 312 286 236 238 230 222 219 212 213 220
153 157 146 143 135 131 120 95 77 64 53 44 36 19 333 156 145 140 144 138 122 109 95 75 84 93 12 342 68 126 102 293 314 322 330 328 303 255 240 235 222 216 217
164 154 144 143 135 129 117 105 105 106 104 115 145 12 8 25 66 162 149 135 126 116 110 92 96 112 114 347 341 16 188 194 234 315 322 331 331 310 277 256 241 225 219
164 157 155 144 137 131 120 117 110 107 118 99 64 48 25 20 30 60 88 99 103 103 106 83 71 72 132 176 238 292 318 318 185 194 295 318 328 312 294 268 251 238 224
166 161 157 147 147 140 127 122 122 122 115 92 71 57 38 32 37 49 72 82 95 103 109 103 70 353 271 231 223 212 207 227 241 212 249 284 297 296 297 290 275 258 240